Corpus Christi NAS, TX

1:25 PM CDT on March 24, 2017 (GMT -0500)
Corpus Christi Naval Air Station-Truax

Weather History for KNGP - January, 2013

Change the Weather History Date:

Monday, January 7, 2013

  Actual Average Record
Temperature  
Mean Temperature 54 °F -  
Max Temperature 63 °F 64 °F 70 °F (2016)
Min Temperature 44 °F 48 °F 27 °F (2017)
Degree Days  
Heating Degree Days 12    
Growing Degree Days 4 (Base 50)    
Moisture  
Dew Point 50 °F    
Average Humidity 79    
Maximum Humidity 94    
Minimum Humidity 63    
Precipitation  
Precipitation 0.00 in - - ()
Sea Level Pressure  
Sea Level Pressure 30.14 in    
Wind  
Wind Speed 8 mph (ENE)    
Max Wind Speed 12 mph    
Max Gust Speed -    
Visibility 9 miles    
Events      
Averages and records for this station are not official NWS values.
T = Trace of Precipitation, MM = Missing Value Source: NWS Daily Summary

Daily Weather History Graph

Daily Weather History Graph

Search for Another Location

Airport or City:

Trip Planner

Search our weather history database for the weather conditions in past years. The results will help you decide how hot, cold, wet, or windy it might be!

Date:

Astronomy

Jan. 07, 2013 Rise Set
Actual Time 7:21 AM CST 5:50 PM CST
Civil Twilight 6:55 AM CST 6:15 PM CST
Nautical Twilight 6:26 AM CST 6:44 PM CST
Astronomical Twilight 5:58 AM CST 7:13 PM CST
Moon 2:52 AM CST (1/7) 1:58 PM CST (1/7)
Length of Visible Light 11h 20m
Length of Day
10h 29m
Waning Crescent, 22% of the Moon is Illuminated
Jan 7
Waning Crescent
Jan 11
New
Jan 18
First Quarter
Jan 26
Full
Feb 3
Last Quarter

Hourly Weather History & Observations

Time (CST) Temp. Windchill Dew Point Humidity Pressure Visibility Wind Dir Wind Speed Gust Speed Precip Events Conditions
12:56 AM - - - N/A% 30.32 in - North - - N/A   Unknown
1:56 AM - - - N/A% 30.30 in - North - - N/A   Unknown
2:56 AM - - - N/A% 30.27 in - North - - N/A   Unknown
3:56 AM - - - N/A% 30.26 in - North - - N/A   Unknown
4:56 AM - - - N/A% 30.25 in - North - - N/A   Unknown
5:56 AM - - - N/A% 30.24 in - North - - N/A   Unknown
6:04 AM 44.6 °F 43.1 °F 42.8 °F 93% 30.23 in 10.0 mi NNE 3.5 mph - N/A   Partly Cloudy
6:56 AM 47.3 °F - 42.8 °F 84% 30.23 in 10.0 mi NE 6.9 mph - N/A   Mostly Cloudy
7:56 AM 47.7 °F - 43.3 °F 85% 30.23 in 10.0 mi ENE 9.2 mph - N/A   Mostly Cloudy
8:56 AM 51.8 °F - 44.4 °F 76% 30.25 in 10.0 mi NE 4.6 mph - N/A   Mostly Cloudy
9:56 AM 53.1 °F - 44.4 °F 72% 30.25 in 10.0 mi ENE 9.2 mph - N/A   Mostly Cloudy
10:56 AM 56.3 °F - 46.9 °F 71% 30.25 in 10.0 mi ENE 9.2 mph - N/A   Mostly Cloudy
11:56 AM 57.2 °F - 45.9 °F 66% 30.21 in 10.0 mi NE 11.5 mph - N/A   Mostly Cloudy
12:56 PM 63.0 °F - 50.4 °F 63% 30.16 in 10.0 mi NE 11.5 mph - N/A   Overcast
1:56 PM 62.1 °F - 50.0 °F 65% 30.12 in 10.0 mi ENE 11.5 mph - N/A   Overcast
2:56 PM 61.3 °F - 50.2 °F 67% 30.10 in 10.0 mi East 6.9 mph - N/A   Overcast
3:37 PM 59.0 °F - 50.0 °F 72% 30.09 in 10.0 mi East 9.2 mph - N/A   Overcast
3:56 PM 58.6 °F - 50.7 °F 75% 30.09 in 10.0 mi ENE 10.4 mph - N/A   Overcast
4:16 PM 59.0 °F - 50.0 °F 72% 30.10 in 10.0 mi ENE 10.4 mph - N/A   Overcast
4:31 PM 59.0 °F - 51.8 °F 77% 30.09 in 10.0 mi ENE 9.2 mph - N/A   Overcast
4:56 PM 59.0 °F - 51.1 °F 75% 30.10 in 10.0 mi ENE 9.2 mph - N/A   Overcast
5:56 PM 58.8 °F - 50.7 °F 74% 30.09 in 10.0 mi East 5.8 mph - N/A   Overcast
6:11 PM 59.0 °F - 51.8 °F 77% 30.09 in 10.0 mi East 4.6 mph - N/A   Light Drizzle
6:46 PM 59.0 °F - 53.6 °F 82% 30.08 in 10.0 mi ENE 8.1 mph - N/A   Overcast
6:56 PM 59.5 °F - 52.9 °F 79% 30.09 in 10.0 mi ENE 8.1 mph - 0.00 in   Light Drizzle
7:56 PM 57.7 °F - 54.3 °F 88% 30.08 in 5.0 mi ENE 6.9 mph - 0.00 in   Light Drizzle
8:14 PM 57.2 °F - 53.6 °F 88% 30.07 in 6.0 mi ENE 6.9 mph - N/A   Overcast
8:37 PM 57.2 °F - 55.4 °F 94% 30.06 in 5.0 mi East 9.2 mph - N/A   Light Drizzle
8:56 PM 56.3 °F - 53.2 °F 89% 30.04 in 5.0 mi East 10.4 mph - 0.00 in   Overcast
9:56 PM 58.3 °F - 54.9 °F 88% 30.05 in 6.0 mi East 8.1 mph - N/A   Overcast
10:39 PM 59.0 °F - 55.4 °F 88% 30.02 in 6.0 mi East 9.2 mph - N/A   Light Drizzle
10:56 PM 58.1 °F - 55.8 °F 92% 30.03 in 5.0 mi East 9.2 mph - 0.00 in   Overcast
11:03 PM - - - N/A% 30.02 in - North - - N/A   Unknown
11:56 PM - - - N/A% 30.01 in - North - - N/A   Unknown